星链-11324 (STARLINK-11324)

导读 | 星芒AI

STARLINK-11324 是 SpaceX Starlink 卫星互联网项目中的一颗低轨卫星,属于第50批部署的星链卫星之一。该卫星于2023年发射,旨在为全球用户提供高速、低延迟的互联网服务。它运行在约550公里高的近地轨道,采用可再生太阳能供电,并具备自动避障功能以减少太空碰撞风险。作为星链计划的重要组成部分,STARLINK-11324 有助于扩展网络覆盖范围,特别是在偏远和网络基础设施薄弱的地区。

基本信息
目录编号:
61879
目录名称:
STARLINK-11324
国际标识:
2024-204F
轨道中心:
EARTH
卫星名称:
星链-11324
卫星全名:
星链-11324 (STARLINK-11324)
卫星状态:
在轨 (已飞行354 天)
发射日期:
2024-11-09 UTC
国别 :
美国 (US)
星等 :
--
轨道信息
数据来源 国际轨道数据
星历时间: 2025-10-28T14:16:00+0800
1天前
查看轨道信息
半长轴: 6737.866km
偏心率: 0.000132
轨道倾角: 53.159°
近地点辐角 80.646°
升交点赤经 289.205°
平近点角 279.471°
近地点: 358.841km
远地点: 360.621km
周期: 91.737分钟
每日圈数: 15.697094
详细信息
固有亮度:
5
最大亮度:
2.5
卫星平台:
Starlink V1.0
覆盖范围:
全球
运营商:
太空探索技术公司
运营商所在国:
美国
制造商(研发单位):
太空探索技术公司
制造商所在国:
美国
使用方式:
暂无
卫星简介
Starlink 计划是 SpaceX 推出的全球卫星互联网项目,通过发射低轨道卫星,为全球尤其是偏远地区提供高速、低延迟的互联网服务。自 2019 年起,Starlink 已部署数千颗卫星,旨在缩小全球数字鸿沟,推动互联网普及。该项目还为军事、航空等行业提供通信支持,带来广泛经济效益。
2D轨道图
3D轨道图
轨道高度分析图
轨道倾角分析图
轨道综合分析图
查看轨道综合分析图